Regional Weather Roundup
Issued by NWS

Home | Current Version | Previous Version | Text Only | Print | Product List | Glossary On
Versions: 1 2 3 4 5 6 7 8 9 10 11 12 13 14 15 16 17 18 19 20 21 22 23 24 25 26 27 28 29 30 31 32 33 34 35 36 37 38 39 40 41 42 43 44 45 46 47 48 49
000
ASUS45 KBOI 041210
RWRID

IDAHO REGIONAL WEATHER ROUNDUP
NATIONAL WEATHER SERVICE BOISE ID
600 AM MDT FRI SEP 04 2015

NOTE: "FAIR" INDICATES FEW OR NO CLOUDS BELOW 12000 FEET
WITH NO SIGNIFICANT WEATHER AND/OR OBSTRUCTIONS TO VISIBILITY

IDZ012-014-041300-
SOUTHWEST IDAHO


CITY           SKY/WX    TMP DP  RH WIND       PRES   REMARKS
BOISE          MOCLDY    52  39  61 W7        29.84S
CALDWELL       MOCLDY    50  28  43 W9        29.87S
MOUNTAIN HOME  LGT RAIN  54  42  65 W9        29.84R
$$

IDZ016-017-041300-
SOUTHCENTRAL IDAHO


CITY           SKY/WX    TMP DP  RH WIND       PRES   REMARKS
BURLEY         PTCLDY    44  39  82 S5        29.86S
JEROME         PTCLDY    51  38  60 SW6       29.86S
TWIN FALLS     PTCLDY    54  34  46 SW9       29.87S
$$

IDZ019>023-041300-
SOUTHEAST IDAHO


CITY           SKY/WX    TMP DP  RH WIND       PRES   REMARKS
IDAHO FALLS    PTCLDY    52  39  61 SW12      29.88R
POCATELLO      CLEAR     52  38  58 SW12      29.88S
REXBURG        PTCLDY    52  41  66 SW9       29.88R
$$

IDZ006-010-011-018-031-032-041300-
CENTRAL IDAHO MOUNTAINS


CITY           SKY/WX    TMP DP  RH WIND       PRES   REMARKS
MCCALL         PTCLDY    35  33  92 SW6       29.90F WCI  30
HAILEY         CLOUDY    54  37  54 NW8       29.89R
STANLEY          N/A     38  34  85 CALM      30.01S
SALMON         CLOUDY    46  41  81 SW8       29.95S
CHALLIS        LGT RAIN  47  42  83 N8        29.95R
$$

IDZ002-004-006-007-026-041300-
NORTHERN IDAHO


CITY           SKY/WX    TMP DP  RH WIND       PRES   REMARKS
LEWISTON       CLEAR     46  42  86 CALM      29.94S
LOWELL           N/A     48  46  93 NW3       29.96S
COEUR D`ALENE  CLEAR     39  34  81 NE7       29.97S WCI  34
MULLAN PASS    CLEAR     37  32  82 N3        29.97F
$$



USA.gov is the U.S. government's official web portal to all federal, state and local government web resources and services.